Location: *
(49.8044°N, 4.0558°E)
Time: 12:10:56
(UTC+00:00)

Cosmos 2208 Rocket - Pass Details

Date: 09 April 2020
Orbit: 754 x 806 km, 74.0° (Epoch: 27 May)

Event Time Altitude Azimuth Distance (km) Brightness Sun altitude
Rises 21:27:54 0° 333° (NNW) 3,225 8.5 -24.9°
Reaches altitude 10° 21:30:18 10° 329° (NNW) 2,300 7.5 -25.2°
Maximum altitude 21:35:23 57° 252° (WSW) 902 4.3 -25.7°
Enters shadow 21:36:02 53° 222° (SW) 941 4.3 -25.7°
